Location: Santa Barbara
(34.4500°N, 119.7700°W)
Time: 23:36:21
(UTC-07:00)

Cosmos 1892 Rocket - Visible Passes

Search period start: 02 August 2015 00:00
Search period end: 12 August 2015 00:00
Orbit: 607 x 634 km, 82.5° (Epoch: 02 August)

Date Brightness Start Highest point End Pass type
(mag) Time Alt. Az. Time Alt. Az. Time Alt. Az.
02 Aug 4.3 21:46:31 10° NNE 21:50:20 35° ENE 21:50:20 35° ENE visible
02 Aug 6.1 23:25:37 10° NW 23:27:32 14° WNW 23:27:32 14° WNW visible
03 Aug 3.4 22:04:02 10° N 22:08:16 73° ENE 22:08:16 73° ENE visible
04 Aug 4.1 22:21:56 10° NNW 22:26:10 53° W 22:26:14 53° W visible
05 Aug 5.0 21:02:48 10° NNE 21:05:57 20° ENE 21:07:01 18° E visible
05 Aug 5.3 22:40:15 10° NNW 22:43:53 26° W 22:44:13 25° W visible
06 Aug 4.1 21:19:54 10° N 21:23:57 39° E 21:25:02 33° ESE visible
06 Aug 6.2 22:59:25 10° WNW 23:01:33 13° W 23:02:14 13° W visible
07 Aug 3.4 21:37:28 10° N 21:41:50 82° E 21:43:05 46° SSE visible
08 Aug 5.6 20:20:05 10° NE 20:21:18 11° ENE 20:22:48 10° E visible
08 Aug 4.4 21:55:25 10° NNW 21:59:36 47° W 22:01:10 32° SW visible
09 Aug 4.9 20:36:05 10° NNE 20:39:26 22° ENE 20:42:05 14° ESE visible
09 Aug 5.6 22:13:49 10° NW 22:17:18 23° W 22:19:18 17° SW visible
10 Aug 3.9 20:53:16 10° N 20:57:25 43° E 21:00:15 18° SE visible
10 Aug 6.4 22:33:19 10° WNW 22:34:57 12° W 22:36:19 10° WSW visible
11 Aug 3.5 21:10:55 10° N 21:15:16 88° W 21:18:29 18° S visible
